Вернуться в каталог

COSMOS 735

АктивенВоенныеLEO
NORAD 7824·PAYLOAD·🇷🇺 Russia

Запущен May 28, 1975 с Plesetsk Cosmodrome

Loading…

Ближайшие Пролёты (ближайшие 24 часа)

TLE

СвежийSource: Space-Track

Эпоха: Sep 14, 2026, 14:52 UTC

1 07824U 75045D   26257.61971336 -.00000017  00000-0 -53424-5 0  9993
2 07824  74.0163 216.9567 0007264 139.2479 333.0347 12.49370719339757

Отслеживайте COSMOS 735 в реальном времени с AllMySat

Download on the App Store